星链-31951 (STARLINK-31951 )

导读

STARLINK-31951是美国太空探索技术公司SpaceX星链卫星互联网项目的组成卫星,于2024年5月28日发射入轨。它隶属于星链低轨星座组网卫星,旨在为全球提供高速低延迟互联网接入服务,进一步扩充星链星座的在轨卫星规模,提升全球覆盖密度与服务稳定性,助力星链在民用及商用领域持续拓展服务能力。

基本信息
目录编号:
59890
目录名称:
STARLINK-31951
国际标识:
2024-100F
轨道中心:
EARTH
卫星名称:
星链-31951
卫星全名:
星链-31951 (STARLINK-31951 )
卫星状态:
在轨 (已飞行751 天)
发射日期:
2024-05-28 UTC
国别 :
美国 (US)
星等 :
--
轨道信息
数据来源 国际轨道数据
星历时间: 2026-06-18T02:13:46+0800
8小时前
查看轨道信息
半长轴: 6861.144km
偏心率: 0.0001005
轨道倾角: 43.002°
近地点辐角 291.827°
升交点赤经 280.057°
平近点角 68.248°
近地点: 482.317km
远地点: 483.697km
周期: 94.266分钟
每日圈数: 15.275942
详细信息
固有亮度:
5
最大亮度:
1.5
卫星平台:
Starlink v2.0 mini
覆盖范围:
全球
运营商:
太空探索技术公司
运营商所在国:
美国
制造商(研发单位):
太空探索技术公司
制造商所在国:
美国
使用方式:
暂无
卫星简介
星链(Starlink)计划是由太空探索技术公司(SpaceX)提出的一个巨型低轨卫星互联网星座项目,计划在2019年至2024年间在太空搭建由约1.2万颗卫星组成的“星链”网络,其中1584颗将部署在地球上空550千米处的近地轨道,并从2020年开始工作。该卫星仍在工作。
2D轨道图
3D轨道图
轨道高度分析图
轨道倾角分析图
轨道综合分析图
查看轨道综合分析图